Date String (YYYY-MM-DD hh:mm:ss) UTC,Instrument flags,Ambient pressure (hPa),Sample flow (lpm),Bypass flow (lpm),Sample temperature (°C),Ambient temperature (°C),ASC tube jacket temperature (°C),LED temperature (°C),Box temperature (°C),Sample RH (%),Span deviation,Mass concentration (μg/m³),Mass concentration (μg/m³),Mass concentration (μg/m³)
DateTimeUTC,F1_M11,P_M11,Q1_M11,Q2_M11,T1_M11,T2_M11,T3_M11,T4_M11,T5_M11,U1_M11,ZSPAN_M11,X2_M11,X0_M11,X1_M11
2022-01-23 09:00:00,,0829.8,5.01,0.00,22.6,22.8,00.0,31.4,24.5,08.2,0000.0,0001.54,0002.20,0001.38
2022-01-23 09:01:00,,0829.8,5.00,0.00,22.6,22.7,00.0,31.4,24.5,08.2,0000.0,0001.47,0002.14,0001.33
2022-01-23 09:02:00,,0829.8,4.99,0.00,22.6,22.5,00.0,31.4,24.4,08.1,0000.0,0001.43,0002.08,0001.28
2022-01-23 09:03:00,,0830.0,5.00,0.00,22.6,22.3,00.0,31.4,24.4,08.0,0000.0,0001.38,0001.90,0001.23
2022-01-23 09:04:00,,0829.9,5.01,0.00,22.6,22.2,00.0,31.4,24.3,08.0,0000.0,0001.33,0001.81,0001.18
2022-01-23 09:05:00,,0829.9,4.99,0.00,22.5,22.1,00.0,31.4,24.3,08.0,0000.0,0001.29,0001.77,0001.13
2022-01-23 09:06:00,,0830.0,5.00,0.00,22.5,22.0,00.0,31.5,24.3,07.9,0000.0,0001.25,0001.70,0001.09
2022-01-23 09:07:00,,0830.0,5.01,0.00,22.5,22.0,00.0,31.5,24.3,08.1,0000.0,0001.18,0001.58,0001.04
2022-01-23 09:08:00,,0830.0,4.99,0.00,22.5,21.9,00.0,31.5,24.2,08.6,0000.0,0001.15,0001.55,0001.01
2022-01-23 09:09:00,,0830.0,5.01,0.00,22.5,21.9,00.0,31.5,24.2,08.5,0000.0,0001.18,0001.67,0001.02
2022-01-23 09:10:00,,0830.1,5.00,0.00,22.5,21.9,00.0,31.4,24.2,08.9,0000.0,0001.19,0001.65,0001.05
2022-01-23 09:11:00,,0830.1,5.00,0.00,22.4,21.8,00.0,31.4,24.2,08.7,0000.0,0001.22,0001.73,0001.07
2022-01-23 09:12:00,,0830.1,5.01,0.00,22.4,21.8,00.0,31.4,24.1,08.6,0000.0,0001.24,0001.71,0001.11
2022-01-23 09:13:00,,0830.1,4.99,0.00,22.4,21.7,00.0,31.4,24.1,08.6,0000.0,0001.28,0001.65,0001.15
2022-01-23 09:14:00,,0830.1,5.02,0.00,22.4,21.7,00.0,31.4,24.1,08.9,0000.0,0001.31,0001.67,0001.19
2022-01-23 09:15:00,,0830.2,4.98,0.00,22.4,21.7,00.0,31.4,24.1,08.8,0000.0,0001.36,0001.72,0001.25
2022-01-23 09:16:00,,0830.1,5.01,0.00,22.3,21.6,00.0,31.4,24.1,08.6,0000.0,0001.38,0001.72,0001.29
2022-01-23 09:17:00,,0830.2,4.99,0.00,22.3,21.6,00.0,31.4,24.1,08.7,0000.0,0001.41,0001.76,0001.32
2022-01-23 09:18:00,,0830.1,5.02,0.00,22.3,21.6,00.0,31.4,24.1,08.7,0000.0,0001.49,0001.89,0001.38
2022-01-23 09:19:00,,0830.1,4.98,0.00,22.3,21.6,00.0,31.4,24.0,08.8,0000.0,0001.55,0001.96,0001.43
2022-01-23 09:20:00,,0830.2,5.01,0.00,22.3,21.6,00.0,31.3,24.0,08.8,0000.0,0001.60,0002.06,0001.47
2022-01-23 09:21:00,,0830.2,5.01,0.00,22.3,21.6,00.0,31.3,24.0,08.7,0000.0,0001.66,0002.21,0001.48
2022-01-23 09:22:00,,0830.2,4.99,0.00,22.2,21.5,00.0,31.3,24.0,08.8,0000.0,0001.75,0002.42,0001.49
2022-01-23 09:23:00,,0830.2,5.01,0.00,22.2,21.6,00.0,31.3,24.0,08.7,0000.0,0001.83,0003.79,0001.52
2022-01-23 09:24:00,,0830.2,4.98,0.00,22.3,22.0,00.0,31.3,24.1,08.9,0000.0,0002.06,0005.08,0001.55
2022-01-23 09:25:00,,0830.3,5.01,0.00,22.4,22.7,00.0,31.4,24.3,08.9,0000.0,0002.33,0006.96,0001.59
2022-01-23 09:26:00,,0830.2,4.99,0.00,22.5,23.2,00.0,31.4,24.5,08.7,0000.0,0002.53,0009.25,0001.61
2022-01-23 09:27:00,,0830.3,4.99,0.00,22.6,23.0,00.0,31.4,24.6,08.4,0000.0,0002.82,0010.17,0001.64
2022-01-23 09:28:00,,0830.3,5.01,0.00,22.6,22.8,00.0,31.4,24.5,08.2,0000.0,0003.09,0012.07,0001.66
2022-01-23 09:29:00,,0830.2,5.00,0.00,22.6,22.6,00.0,31.4,24.5,08.2,0000.0,0003.40,0014.01,0001.69
2022-01-23 09:30:00,,0830.3,4.99,0.00,22.6,22.5,00.0,31.4,24.4,08.3,0000.0,0003.69,0017.55,0001.72
2022-01-23 09:31:00,,0830.3,5.00,0.00,22.6,22.3,00.0,31.4,24.4,08.4,0000.0,0003.96,0021.08,0001.72
2022-01-23 09:32:00,,0830.3,4.99,0.00,22.6,22.2,00.0,31.5,24.3,08.5,0000.0,0004.16,0023.20,0001.71
2022-01-23 09:33:00,,0830.3,5.01,0.00,22.6,22.1,00.0,31.5,24.3,08.6,0000.0,0004.29,0024.59,0001.71
2022-01-23 09:34:00,,0830.3,5.00,0.00,22.5,22.1,00.0,31.5,24.3,08.6,0000.0,0004.42,0025.24,0001.70
2022-01-23 09:35:00,,0830.2,5.01,0.00,22.5,22.0,00.0,31.4,24.3,08.5,0000.0,0004.43,0025.81,0001.67
2022-01-23 09:36:00,,0830.2,5.01,0.00,22.5,21.9,00.0,31.4,24.3,08.6,0000.0,0004.34,0025.71,0001.62
2022-01-23 09:37:00,,0830.2,4.98,0.00,22.5,21.9,00.0,31.4,24.3,08.5,0000.0,0004.32,0025.87,0001.58
2022-01-23 09:38:00,,0830.2,5.02,0.00,22.5,21.8,00.0,31.4,24.3,08.5,0000.0,0004.27,0026.21,0001.56
2022-01-23 09:39:00,,0830.2,4.99,0.00,22.5,21.8,00.0,31.4,24.2,08.5,0000.0,0004.20,0025.04,0001.54
2022-01-23 09:40:00,,0830.2,5.01,0.00,22.5,21.8,00.0,31.4,24.2,08.4,0000.0,0003.97,0024.40,0001.50
2022-01-23 09:41:00,,0830.2,4.99,0.00,22.4,21.7,00.0,31.4,24.2,08.4,0000.0,0003.77,0021.33,0001.45
2022-01-23 09:42:00,,0830.2,5.01,0.00,22.4,21.7,00.0,31.4,24.1,08.4,0000.0,0003.55,0018.03,0001.41
2022-01-23 09:43:00,,0830.2,4.99,0.00,22.4,21.7,00.0,31.4,24.1,08.3,0000.0,0003.37,0016.35,0001.38
2022-01-23 09:44:00,,0830.2,5.02,0.00,22.4,21.6,00.0,31.4,24.1,08.3,0000.0,0003.32,0015.21,0001.37
2022-01-23 09:45:00,,0830.2,4.99,0.00,22.3,21.6,00.0,31.4,24.0,08.3,0000.0,0003.29,0014.88,0001.36
2022-01-23 09:46:00,,0830.2,4.99,0.00,22.3,21.6,00.0,31.4,24.0,08.3,0000.0,0003.22,0015.06,0001.34
2022-01-23 09:47:00,,0830.3,5.01,0.00,22.3,21.6,00.0,31.4,24.0,08.3,0000.0,0003.17,0014.72,0001.31
2022-01-23 09:48:00,,0830.3,4.99,0.00,22.3,21.6,00.0,31.3,24.0,08.3,0000.0,0003.04,0013.40,0001.29
2022-01-23 09:49:00,,0830.3,5.00,0.00,22.3,22.0,00.0,31.4,24.1,08.3,0000.0,0003.00,0013.97,0001.28
2022-01-23 09:50:00,,0830.4,5.01,0.00,22.4,22.7,00.0,31.4,24.3,08.3,0000.0,0003.06,0014.13,0001.28
2022-01-23 09:51:00,,0830.4,5.00,0.00,22.6,23.3,00.0,31.4,24.6,08.2,0000.0,0003.09,0014.13,0001.26
2022-01-23 09:52:00,,0830.4,5.00,0.00,22.6,23.1,00.0,31.5,24.6,08.3,0000.0,0002.99,0014.00,0001.26
2022-01-23 09:53:00,,0830.3,5.00,0.00,22.6,22.9,00.0,31.5,24.5,08.3,0000.0,0002.96,0014.26,0001.26
2022-01-23 09:54:00,,0830.3,5.00,0.00,22.6,22.6,00.0,31.5,24.4,08.3,0000.0,0002.95,0014.61,0001.25
2022-01-23 09:55:00,,0830.3,5.00,0.00,22.6,22.4,00.0,31.5,24.3,08.3,0000.0,0002.76,0014.35,0001.25
2022-01-23 09:56:00,,0830.3,4.99,0.00,22.6,22.3,00.0,31.5,24.3,08.3,0000.0,0002.59,0013.64,0001.23
2022-01-23 09:57:00,,0830.3,5.02,0.00,22.5,22.2,00.0,31.5,24.3,08.3,0000.0,0002.55,0012.62,0001.24
2022-01-23 09:58:00,,0830.3,4.99,0.00,22.5,22.1,00.0,31.5,24.2,08.4,0000.0,0002.55,0011.96,0001.27
2022-01-23 09:59:00,,0830.3,4.99,0.00,22.5,22.0,00.0,31.5,24.2,08.4,0000.0,0002.63,0011.60,0001.28
